This is the latest recevied weather packets stored in our database for station/object KB0RPJ. If no packets are shown the sender has not sent any weather packets the latest 10 day(s).
| Time | Temp. | Humidity | Pressure | Rain* | Wind** | Luminosity | Snow |
|---|---|---|---|---|---|---|---|
| 1778110805 | 13.89° C | 33% | 1016.4 hPa | 0 mm | - | 221 W/m² | - |
| 1778110521 | 14.44° C | 32% | 1016.5 hPa | 0 mm | - | 85 W/m² | - |
| 1778110206 | 14.44° C | 32% | 1016.5 hPa | 0 mm | - | 74 W/m² | - |
| 1778109905 | 15° C | 33% | 1016.5 hPa | 0 mm | - | 230 W/m² | - |
| 1778109606 | 15° C | 32% | 1016.5 hPa | 0 mm | - | 294 W/m² | - |
| 1778109305 | 15° C | 34% | 1016.5 hPa | 0 mm | - | 310 W/m² | - |
| 1778109021 | 15° C | 31% | 1016.6 hPa | 0 mm | - | 329 W/m² | - |
| 1778108706 | 14.44° C | 33% | 1016.7 hPa | 0 mm | - | 373 W/m² | - |
| 1778108406 | 14.44° C | 32% | 1016.6 hPa | 0 mm | - | 387 W/m² | - |
| 1778108107 | 14.44° C | 33% | 1016.8 hPa | 0 mm | - | 403 W/m² | - |
| 1778107810 | 14.44° C | 32% | 1016.8 hPa | 0 mm | - | 330 W/m² | - |
| 1778107504 | 15° C | 31% | 1016.8 hPa | 0 mm | - | 326 W/m² | - |
| 1778107205 | 14.44° C | 32% | 1016.8 hPa | 0 mm | - | 449 W/m² | - |
| 1778106904 | 14.44° C | 32% | 1016.9 hPa | 0 mm | - | 354 W/m² | - |
| 1778106605 | 14.44° C | 34% | 1016.7 hPa | 0 mm | - | 218 W/m² | - |
| 1778106304 | 14.44° C | 33% | 1016.8 hPa | 0 mm | - | 342 W/m² | - |
| 1778106005 | 14.44° C | 31% | 1016.9 hPa | 0 mm | - | 183 W/m² | - |
| 1778105704 | 15° C | 33% | 1016.9 hPa | 0 mm | - | 189 W/m² | - |
| 1778105405 | 15° C | 33% | 1017 hPa | 0 mm | - | 188 W/m² | - |
| 1778105105 | 15° C | 33% | 1017 hPa | 0 mm | - | 262 W/m² | - |
| 1778104805 | 15° C | 32% | 1017 hPa | 0 mm | - | 636 W/m² | - |
| 1778104505 | 15° C | 33% | 1017 hPa | 0 mm | - | 586 W/m² | - |
| 1778104205 | 15° C | 33% | 1017 hPa | 0 mm | - | 473 W/m² | - |
| 1778103910 | 15° C | 33% | 1016.9 hPa | 0 mm | - | 401 W/m² | - |
| 1778103610 | 14.44° C | 36% | 1017 hPa | 0 mm | - | 658 W/m² | - |
* Rain latest hour (hover to see other rain measurements)
** Current wind speed in m/s (hover to see current wind gust speed)